| time (UTC) | temp C | wind direction | speed KPH | gust KPH | rain 1hr cm | rain 24hr cm | rain mn cm | humidity % | barometer mb |
| 20260507163017 | 17 | 331 | 16.1 | 29.0 | 0.00 | 0.00 | 0.00 | 39 | 1014.1 |
| 20260507161522 | 17 | 347 | 16.1 | 30.6 | 0.00 | 0.00 | 0.00 | 39 | 1014.1 |
| 20260507160018 | 17 | 30 | 8.0 | 30.6 | 0.00 | 0.00 | 0.00 | 39 | 1014.0 |
| 20260507154511 | 17 | 323 | 4.8 | 12.9 | 0.00 | 0.00 | 0.00 | 40 | 1014.2 |
| 20260507153008 | 16 | 341 | 4.8 | 14.5 | 0.00 | 0.00 | 0.00 | 41 | 1014.1 |
| 20260507151506 | 16 | 300 | 3.2 | 8.0 | 0.00 | 0.00 | 0.00 | 41 | 1014.1 |
| 20260507150001 | 15 | 285 | 1.6 | 8.0 | 0.00 | 0.00 | 0.00 | 43 | 1014.2 |
| 20260507144615 | 14 | 306 | 0.0 | 4.8 | 0.00 | 0.00 | 0.00 | 45 | 1014.2 |
| 20260507143057 | 13 | 280 | 0.0 | 9.7 | 0.00 | 0.00 | 0.00 | 44 | 1014.1 |
| 20260507141615 | 13 | 343 | 3.2 | 16.1 | 0.00 | 0.00 | 0.00 | 43 | 1014.1 |
| 20260507140050 | 12 | 343 | 8.0 | 16.1 | 0.00 | 0.00 | 0.00 | 47 | 1014.2 |
| 20260507134547 | 10 | 38 | 3.2 | 6.4 | 0.00 | 0.00 | 0.00 | 55 | 1014.0 |
| 20260507133042 | 9 | 23 | 0.0 | 1.6 | 0.00 | 0.00 | 0.00 | 58 | 1013.8 |
| 20260507131543 | 8 | 60 | 0.0 | 1.6 | 0.00 | 0.00 | 0.00 | 58 | 1013.7 |
| 20260507130039 | 8 | 345 | 3.2 | 6.4 | 0.00 | 0.00 | 0.00 | 58 | 1013.6 |
| 20260507124535 | 7 | 333 | 3.2 | 8.0 | 0.00 | 0.00 | 0.00 | 59 | 1013.4 |
| 20260507123034 | 7 | 306 | 1.6 | 4.8 | 0.00 | 0.00 | 0.00 | 60 | 1013.3 |
| 20260507121532 | 6 | 290 | 0.0 | 3.2 | 0.00 | 0.00 | 0.00 | 60 | 1013.1 |
| 20260507120032 | 6 | 266 | 0.0 | 3.2 | 0.00 | 0.00 | 0.00 | 61 | 1013.0 |
| 20260507114601 | 6 | 305 | 1.6 | 4.8 | 0.00 | 0.00 | 0.00 | 61 | 1012.9 |
| 20260507113058 | 6 | 307 | 0.0 | 4.8 | 0.00 | 0.00 | 0.00 | 58 | 1012.9 |
| 20260507111556 | 6 | 302 | 0.0 | 1.6 | 0.00 | 0.00 | 0.00 | 56 | 1012.8 |
| 20260507110055 | 6 | 284 | 0.0 | 0.0 | 0.00 | 0.00 | 0.00 | 58 | 1012.7 |
| 20260507104556 | 6 | 284 | 0.0 | 3.2 | 0.00 | 0.00 | 0.00 | 56 | 1012.5 |
| 20260507103053 | 6 | 325 | 0.0 | 1.6 | 0.00 | 0.00 | 0.00 | 55 | 1012.4 |
| 20260507101552 | 6 | 325 | 0.0 | 4.8 | 0.00 | 0.00 | 0.00 | 56 | 1012.3 |
| 20260507100049 | 5 | 25 | 6.4 | 9.7 | 0.00 | 0.00 | 0.00 | 58 | 1012.4 |
| 20260507094549 | 6 | 300 | 0.0 | 6.4 | 0.00 | 0.00 | 0.00 | 57 | 1012.1 |
| 20260507093048 | 6 | 248 | 0.0 | 4.8 | 0.00 | 0.00 | 0.00 | 57 | 1011.9 |
| 20260507091545 | 6 | 25 | 0.0 | 4.8 | 0.00 | 0.00 | 0.00 | 56 | 1011.9 |
| 20260507090043 | 6 | 36 | 6.4 | 12.9 | 0.00 | 0.00 | 0.00 | 55 | 1012.2 |
| 20260507084544 | 6 | 34 | 8.0 | 12.9 | 0.00 | 0.00 | 0.00 | 57 | 1011.9 |
| 20260507083039 | 6 | 27 | 6.4 | 9.7 | 0.00 | 0.00 | 0.00 | 58 | 1011.4 |
| 20260507081535 | 6 | 7 | 1.6 | 4.8 | 0.00 | 0.00 | 0.00 | 56 | 1011.4 |
| 20260507080039 | 6 | 29 | 4.8 | 8.0 | 0.00 | 0.00 | 0.00 | 56 | 1011.4 |
| 20260507074532 | 5 | 31 | 3.2 | 11.3 | 0.00 | 0.00 | 0.00 | 55 | 1011.6 |
| 20260507073029 | 6 | 307 | 0.0 | 1.6 | 0.00 | 0.00 | 0.00 | 53 | 1011.3 |
| 20260507071528 | 6 | 39 | 3.2 | 6.4 | 0.00 | 0.00 | 0.00 | 51 | 1011.2 |
| 20260507070022 | 7 | 63 | 3.2 | 4.8 | 0.00 | 0.00 | 0.00 | 49 | 1011.0 |
| 20260507064520 | 8 | 32 | 8.0 | 14.5 | 0.00 | 0.00 | 0.00 | 48 | 1011.1 |
| 20260507064517 | 8 | 33 | 8.0 | 14.5 | 0.00 | 0.00 | 0.00 | 48 | 1011.1 |
| 20260507063014 | 8 | 15 | 8.0 | 12.9 | 0.00 | 0.00 | 0.00 | 46 | 1011.0 |
| 20260507061509 | 10 | 29 | 9.7 | 22.5 | 0.00 | 0.00 | 0.00 | 44 | 1010.9 |
| 20260507054602 | 11 | 59 | 19.3 | 37.0 | 0.00 | 0.00 | 0.00 | 35 | 1011.0 |
| 20260507053058 | 13 | 46 | 19.3 | 27.4 | 0.00 | 0.00 | 0.00 | 34 | 1010.8 |
| 20260507051554 | 14 | 86 | 11.3 | 17.7 | 0.00 | 0.00 | 0.00 | 31 | 1009.8 |
| 20260507050051 | 13 | 79 | 1.6 | 8.0 | 0.00 | 0.00 | 0.00 | 37 | 1009.7 |
| 20260507044559 | 13 | 20 | 3.2 | 8.0 | 0.00 | 0.00 | 0.00 | 38 | 1009.7 |
| 20260507043053 | 13 | 28 | 4.8 | 8.0 | 0.00 | 0.00 | 0.00 | 38 | 1009.6 |
| 20260507041550 | 13 | 7 | 0.0 | 4.8 | 0.00 | 0.00 | 0.00 | 43 | 1009.6 |
| 20260507040046 | 15 | 229 | 0.0 | 3.2 | 0.00 | 0.00 | 0.00 | 41 | 1009.4 |
| 20260507034548 | 15 | 220 | 1.6 | 3.2 | 0.00 | 0.00 | 0.00 | 40 | 1009.4 |
| 20260507033046 | 16 | 219 | 3.2 | 9.7 | 0.00 | 0.00 | 0.00 | 39 | 1009.4 |
| 20260507031546 | 17 | 251 | 6.4 | 12.9 | 0.00 | 0.00 | 0.00 | 38 | 1009.4 |
| 20260507030042 | 17 | 241 | 6.4 | 16.1 | 0.00 | 0.00 | 0.00 | 35 | 1009.9 |
| 20260507024544 | 13 | 248 | 1.6 | 6.4 | 0.00 | 0.00 | 0.00 | 35 | 1009.9 |
| 20260507023040 | 15 | 301 | 1.6 | 3.2 | 0.00 | 0.00 | 0.00 | 34 | 1009.3 |
| 20260507021541 | 17 | 359 | 1.6 | 4.8 | 0.00 | 0.00 | 0.00 | 28 | 1008.9 |
| 20260507020045 | 17 | 4 | 1.6 | 3.2 | 0.00 | 0.00 | 0.00 | 28 | 1008.9 |
| 20260507014537 | 19 | 14 | 3.2 | 8.0 | 0.00 | 0.00 | 0.00 | 26 | 1008.9 |
| 20260507013036 | 20 | 13 | 3.2 | 8.0 | 0.00 | 0.00 | 0.00 | 24 | 1009.0 |
| 20260507011535 | 20 | 355 | 3.2 | 14.5 | 0.00 | 0.00 | 0.00 | 23 | 1009.1 |
| 20260507010032 | 21 | 348 | 6.4 | 17.7 | 0.00 | 0.00 | 0.00 | 22 | 1009.1 |
| 20260507004533 | 21 | 333 | 8.0 | 22.5 | 0.00 | 0.00 | 0.00 | 22 | 1009.2 |
| 20260507003032 | 21 | 29 | 16.1 | 25.7 | 0.00 | 0.00 | 0.00 | 22 | 1009.4 |
| 20260507001535 | 22 | 328 | 11.3 | 20.9 | 0.00 | 0.00 | 0.00 | 22 | 1009.4 |
| 20260507000025 | 21 | 12 | 9.7 | 22.5 | 0.00 | 0.00 | 0.00 | 22 | 1009.5 |
| 20260506234523 | 21 | 324 | 11.3 | 22.5 | 0.00 | 0.00 | 0.00 | 23 | 1009.6 |
| 20260506233022 | 21 | 317 | 9.7 | 22.5 | 0.00 | 0.00 | 0.00 | 22 | 1009.5 |
| 20260506231520 | 21 | 307 | 12.9 | 20.9 | 0.00 | 0.00 | 0.00 | 22 | 1009.6 |
| 20260506230017 | 22 | 300 | 8.0 | 17.7 | 0.00 | 0.00 | 0.00 | 23 | 1009.7 |
| 20260506224515 | 21 | 13 | 3.2 | 16.1 | 0.00 | 0.00 | 0.00 | 23 | 1009.8 |
| 20260506223011 | 21 | 343 | 4.8 | 9.7 | 0.00 | 0.00 | 0.00 | 23 | 1010.1 |
| 20260506221508 | 20 | 276 | 1.6 | 6.4 | 0.00 | 0.00 | 0.00 | 23 | 1010.5 |
| 20260506220004 | 20 | 304 | 6.4 | 19.3 | 0.00 | 0.00 | 0.00 | 23 | 1010.8 |
| 20260506214502 | 20 | 283 | 11.3 | 22.5 | 0.00 | 0.00 | 0.00 | 23 | 1011.0 |
| 20260506213059 | 20 | 17 | 12.9 | 20.9 | 0.00 | 0.00 | 0.00 | 23 | 1011.2 |
| 20260506211556 | 18 | 269 | 6.4 | 11.3 | 0.00 | 0.00 | 0.00 | 24 | 1011.4 |
| 20260506210053 | 18 | 293 | 4.8 | 12.9 | 0.00 | 0.00 | 0.00 | 24 | 1011.8 |
| 20260506204554 | 18 | 336 | 6.4 | 14.5 | 0.00 | 0.00 | 0.00 | 23 | 1012.0 |
| 20260506203051 | 18 | 319 | 6.4 | 12.9 | 0.00 | 0.00 | 0.00 | 25 | 1012.3 |
| 20260506201543 | 17 | 248 | 3.2 | 12.9 | 0.00 | 0.00 | 0.00 | 25 | 1012.4 |
| 20260506200038 | 17 | 300 | 4.8 | 19.3 | 0.00 | 0.00 | 0.00 | 25 | 1012.7 |
| 20260506194539 | 17 | 242 | 6.4 | 16.1 | 0.00 | 0.00 | 0.00 | 24 | 1013.0 |
| 20260506193034 | 16 | 283 | 4.8 | 17.7 | 0.00 | 0.00 | 0.00 | 25 | 1013.2 |
| 20260506191534 | 16 | 238 | 6.4 | 17.7 | 0.00 | 0.00 | 0.00 | 26 | 1013.4 |
| 20260506190023 | 15 | 224 | 8.0 | 19.3 | 0.00 | 0.00 | 0.00 | 26 | 1013.6 |
| 20260506184526 | 15 | 181 | 8.0 | 19.3 | 0.00 | 0.00 | 0.00 | 28 | 1014.0 |
| 20260506183017 | 14 | 238 | 9.7 | 16.1 | 0.00 | 0.00 | 0.00 | 27 | 1014.3 |
| 20260506181513 | 13 | 245 | 11.3 | 19.3 | 0.00 | 0.00 | 0.00 | 28 | 1014.6 |
| 20260506180017 | 13 | 198 | 9.7 | 19.3 | 0.00 | 0.00 | 0.00 | 26 | 1014.9 |
| 20260506174506 | 13 | 243 | 8.0 | 20.9 | 0.00 | 0.00 | 0.00 | 26 | 1015.1 |
| 20260506173002 | 12 | 139 | 4.8 | 20.9 | 0.00 | 0.00 | 0.00 | 25 | 1015.4 |
| 20260506171604 | 12 | 240 | 8.0 | 20.9 | 0.00 | 0.00 | 0.00 | 29 | 1015.6 |
| 20260506170059 | 11 | 223 | 9.7 | 17.7 | 0.00 | 0.00 | 0.00 | 29 | 1016.0 |
| 20260506164557 | 11 | 230 | 6.4 | 16.1 | 0.00 | 0.00 | 0.00 | 34 | 1016.2 |